Location: C�mpuri de-Sus
(45.9500°N, 22.5500°E)
Time: 06:04:54
(UTC+00:00)

Cosmos 2344 - Pass Details

Date: 24 October 2021
Orbit: 1233 x 3009 km, 63.3° (Epoch: 04 December)

Event Time Altitude Azimuth Distance (km) Brightness Sun altitude
Rises 16:27:07 0° 319° (NW) 4,436 7.0 -10.9°
Reaches altitude 10° 16:29:45 10° 323° (NW) 3,585 6.4 -11.3°
Maximum altitude 16:38:34 63° 45° (NE) 1,952 4.3 -12.8°
Drops below altitude 10° 16:50:48 10° 126° (SE) 4,876 6.1 -15.0°
Enters shadow 16:53:52 - 128° (SE) 5,788 6.5 -15.5°
